Regional Weather Roundup
Issued by NWS

Home | Current Version | Previous Version | Text Only | Print | Product List | Glossary On
Versions: 1 2 3 4 5 6 7 8 9 10 11 12 13 14 15 16 17 18 19 20 21 22 23 24 25 26 27 28 29 30 31 32 33 34 35 36 37 38 39 40 41 42 43 44 45 46 47 48 49 50
000
ASUS42 KTBW 092116
RWRFL
FLORIDA REGIONAL WEATHER ROUNDUP
NATIONAL WEATHER SERVICE TAMPA BAY RUSKIN FL
400 PM EST FRI DEC 09 2016

NOTE: "FAIR" INDICATES FEW OR NO CLOUDS BELOW 12,000 FEET WITH NO
SIGNIFICANT WEATHER AND/OR OBSTRUCTIONS TO VISIBILITY.

FLZ001>010-012>015-112-114-115-092200-
PANHANDLE FLORIDA

CITY           SKY/WX    TMP DP  RH WIND       PRES   REMARKS
PENSACOLA      SUNNY     53  18  25 N12       30.42S
PENSACOLA NAS  SUNNY     52  16  24 N13       30.42S
MILTON NAS     SUNNY     50  17  27 N13       30.42
CRESTVIEW      SUNNY     52  16  24 N12G17    30.42F
DUKE FIELD     SUNNY     51  14  22 N12       30.39S
VALPARAISO     MOSUNNY   53  14  21 N13       30.40S
MARY ESTHER    SUNNY     53  14  21 N12       30.39F
TRI COUNTY     FAIR      52  16  24 N8        30.41R
PANAMA CITY    FAIR      54  17  23 N8        30.38S
TYNDALL AFB    SUNNY     55  21  26 N9        30.38S
APALACHICOLA   SUNNY     58  15  18 N15       30.36R

STATION/POSITION SKY/WX   TEMP    WIND        PRES    WAVE   SWELL
                          AIR SEA DIR/SP/G            HT/PER HT/PER
                          (F)     (DEG/KT/KT) (MB)    (FT/S) (FT/S)
30.1N   87.6W              50 69   10/ 12/ 16 1030.6R   2/ 5
29.2N   88.2W              53 74   20/ 17/ 23 1030.0F   6/ 7
28.8N   86.0W              60 74              1027.8R   6/ 6
PANAMA CITY BEAC           52 66   10/ 10/ 13 1029.1S
TOWER C                    54      30/ 15/ 16 1028.3R
28.5N   84.5W              59 73   30/ 17/ 23 1026.2R   5/ 7

$$
FLZ011-016>038-118-127-128-134-139-239-092200-
NORTH FLORIDA

CITY           SKY/WX    TMP DP  RH WIND       PRES   REMARKS
MARIANNA       SUNNY     53  14  21 N10       30.39R
TALLAHASSEE    MOSUNNY   55  14  19 N6        30.37R
PERRY          SUNNY     58  13  17 N10       30.34S
CROSS CITY     SUNNY     57  21  24 N10       30.33R
LAKE CITY      FAIR      54  23  30 NE8       30.33S
GAINESVILLE    SUNNY     59  25  27 N8        30.32R
WILLISTON      SUNNY     63  23  22 N9        30.31S
PALATKA        FAIR      55  36  47 N12       30.33S
MAYPORT NAS    MOSUNNY   54  32  43 N12       30.35R
JACKSONVILLE   MOSUNNY   56  25  30 NE9       30.34R
JAX NAS        MOSUNNY   56  27  32 NE8       30.34S
FERNANDINA BEA FAIR      55  32  41 NE9       30.34R
ST AUGUSTINE   SUNNY     55  38  52 N15       30.34R

STATION/POSITION SKY/WX   TEMP    WIND        PRES    WAVE   SWELL
                          AIR SEA DIR/SP/G            HT/PER HT/PER
                          (F)     (DEG/KT/KT) (MB)    (FT/S) (FT/S)
SHELL POINT      NOT AVBL
KEATON BEACH               56      40/  8/ 11 1026.9R
CEDAR KEY                  58      30/  8/ 11 1026.4F
FERNANDINA                 53 65   10/  5/ 11 1027.6R
30.7N   81.3W                 65                N/A     4/ 6
MAYPORT                    53 65   20/ 12/ 14 1027.6R
31.4N   80.9W              50 63   20/ 12/ 14 1027.7R   4/ 6   3/ 6
ST AUGUSTINE               54 65  360/ 19/ 23 1027.8R

$$
FLZ040-043>046-052-053-057-058-063-144-092200-
INTERIOR CENTRAL FLORIDA

CITY           SKY/WX    TMP DP  RH WIND       PRES   REMARKS
OCALA          SUNNY     61  27  27 N8        30.30S
THE VILLAGES     N/A     59  39  47 SE10      30.20S
LEESBURG       SUNNY     60  39  45 NE10      30.30R
SANFORD        SUNNY     60  43  53 N14       30.28S
ORLANDO EXEC   SUNNY     62  45  53 N13       30.27F
ORLANDO INTL   PTSUNNY   63  44  50 N12G22    30.27S
KISSIMMEE      MOSUNNY   61  45  55 N12       30.28
WINTER HAVEN   MOSUNNY   62  41  46 NE13      30.28R
LAKELAND       SUNNY     61  43  51 NE8       30.27S
BARTOW         SUNNY     61  43  51 N15       30.26S
OKEECHOBEE     CLOUDY    61  54  77 N8        30.22R

$$
FLZ041-047-054-059-064-141-147-092200-
EAST CENTRAL FLORIDA

CITY           SKY/WX    TMP DP  RH WIND       PRES   REMARKS
ORMOND BEACH   SUNNY     57  43  58 N17       30.30S
DAYTONA BEACH  MOSUNNY   59  43  55 N21       30.30R
DELAND         SUNNY     57  43  58 N13       30.30R
NEW SMYRNA BEA MOSUNNY   59  45  58 N21G33    30.27R
JFK SPACE CTR  SUNNY     62  49  62 N12G24    30.25R
TITUSVILLE     MOSUNNY   61  46  59 N21G26    30.27R
CAPE CANAVERAL SUNNY     65  50  59 N17G24    30.24R
PATRICK AFB    MOSUNNY   65  51  59 N17G24    30.24R
MELBOURNE      MOSUNNY   65  51  60 N17G24    30.23R
VERO BEACH     CLOUDY    66  56  70 N18G26    30.21R
FT PIERCE      CLOUDY    65  57  75 N12G22    30.20S
STUART         CLOUDY    70  61  73 N13G23    30.20S

STATION/POSITION SKY/WX   TEMP    WIND        PRES    WAVE   SWELL
                          AIR SEA DIR/SP/G            HT/PER HT/PER
                          (F)     (DEG/KT/KT) (MB)    (FT/S) (FT/S)
TRIDENT PIER               64 72  350/ 15/ 20 1024.1R
28.4N   80.5W                 71                N/A     3/ 6

$$
FLZ050-056-061-142-242-148-248-149-249-151-251-155-255-
160-260-092200-
WEST CENTRAL FLORIDA

CITY           SKY/WX    TMP DP  RH WIND       PRES   REMARKS
CRYSTAL RIVER  FAIR      61  30  31 E9        30.30R
INVERNESS      FAIR      61  34  36 N9        30.30R
BROOKSVILLE    SUNNY    N/A N/A N/A NE12        N/A
CLEARWATER AIR FAIR      61  36  39 NE6       30.27S
ST PETE CLEARW SUNNY     61  38  42 NE9       30.27R
TAMPA INTL     PTSUNNY   61  37  41 NE8       30.28R
TAMPA EXEC     SUNNY     63  39  42 NE6       30.28R
PLANT CITY     SUNNY     61  43  51 NE7       30.29R
MACDILL AFB    SUNNY     62  40  43 NE9       30.26S
PETER O KNIGHT SUNNY     63  43  48 NE9       30.27S
ST PETERSBURG  SUNNY     60  43  53 NE14      30.25S
SARASOTA       MOSUNNY   62  45  53 NE9       30.23R
VENICE         FAIR      61  50  67 NE14      30.24R

STATION/POSITION SKY/WX   TEMP    WIND        PRES    WAVE   SWELL
                          AIR SEA DIR/SP/G            HT/PER HT/PER
                          (F)     (DEG/KT/KT) (MB)    (FT/S) (FT/S)
CLEARWATER BEACH           58 67  350/ 15/ 17 1025.2R
MIDDLE TAMPA BAY           59      30/ 17/ 19 1024.9R
VENICE                     60 70   10/  9/ 11 1023.0F

$$
FLZ066-069-070-075>078-162-262-165-265-092200-
SOUTHWEST FLORIDA AND KEYS

CITY           SKY/WX    TMP DP  RH WIND       PRES   REMARKS
PUNTA GORDA    MOSUNNY   61  50  67 NE14      30.24S
FT MYERS       CLOUDY    62  53  72 NE10      30.20S
SOUTHWEST INTL CLOUDY    62  52  69 NE14      30.21R
NAPLES         CLOUDY    66  55  67 NE15      30.17R
MARCO ISLAND   SUNNY     66  55  68 NE9G20    30.18S
MARATHON       CLOUDY    79  68  69 NE20G25   30.11R
KEY WEST NAS   CLOUDY    76  66  71 NE16      30.13R
KEY WEST INTL  CLOUDY    77  68  73 NE15G21   30.13R

STATION/POSITION SKY/WX   TEMP    WIND        PRES    WAVE   SWELL
                          AIR SEA DIR/SP/G            HT/PER HT/PER
                          (F)     (DEG/KT/KT) (MB)    (FT/S) (FT/S)
NAPLES                        73              1021.9R
26.0N   85.6W              67 76   40/ 21/ 25 1023.3R   8/ 8   2/14
DRY TORTUGAS               70      40/ 22/ 26 1020.8R
SAND KEY                   74      40/ 19/ 22 1020.3R
LONG KEY                   76 78   50/ 21/ 23 1020.2R
MOLASSES REEF              77 79   60/ 20/ 23 1019.6S

$$
FLZ067-068-071>074-168-172>174-092200-
SOUTHEAST FLORIDA

CITY           SKY/WX    TMP DP  RH WIND       PRES   REMARKS
W PALM BEACH   PTSUNNY   69  60  73 N18       30.19R
BOCA RATON     MOSUNNY   73  63  68 NE14G21   30.16R
FT LAUDER-EXEC MOSUNNY   72  61  68 N10G18    30.15S
FT LAUDERDALE  PTSUNNY   74  63  68 N13G23    30.14R
POMPANO BEACH  MOSUNNY   73  62  68 N18       30.16R
PEMBROKE PINES PTSUNNY   74  62  66 N17       30.16R
OPA LOCKA      MOSUNNY   76  63  64 N12       30.15R
MIAMI          CLOUDY    75  63  66 N9G17     30.15R
WEST KENDALL   MOSUNNY   75  63  66 N14       30.14S
HOMESTEAD      CLOUDY    75  69  81 NE13      30.13R

STATION/POSITION SKY/WX   TEMP    WIND        PRES    WAVE   SWELL
                          AIR SEA DIR/SP/G            HT/PER HT/PER
                          (F)     (DEG/KT/KT) (MB)    (FT/S) (FT/S)
PORT EVERGLADES            73     350/  7/ 16 1020.7R
VIRGINIA KEY               73 84   20/  8/ 14 1020.9R
LAKE WORTH                 70 77  350/ 20/ 24 1021.1R
FOWEY ROCKS                74 78   30/ 20/ 21 1020.7F

$$




USA.gov is the U.S. government's official web portal to all federal, state and local government web resources and services.